Date String (YYYY-MM-DD hh:mm:ss) UTC,Instrument flags,Ambient pressure (hPa),Sample flow (lpm),Bypass flow (lpm),Sample temperature (°C),Ambient temperature (°C),ASC tube jacket temperature (°C),LED temperature (°C),Box temperature (°C),Sample RH (%),Span deviation,Mass concentration (μg/m³),Mass concentration (μg/m³),Mass concentration (μg/m³)
DateTimeUTC,F1_M11,P_M11,Q1_M11,Q2_M11,T1_M11,T2_M11,T3_M11,T4_M11,T5_M11,U1_M11,ZSPAN_M11,X0_M11,X2_M11,X1_M11
2022-11-19 17:00:00,,0833.1,5.01,0.00,22.9,21.7,00.0,31.6,24.7,07.6,0000.0,0004.59,0002.71,0002.50
2022-11-19 17:01:00,,0833.0,4.99,0.00,22.9,21.7,00.0,31.7,24.7,07.6,0000.0,0004.95,0002.62,0002.42
2022-11-19 17:02:00,,0833.1,5.00,0.00,22.9,21.8,00.0,31.7,24.7,07.7,0000.0,0004.88,0002.55,0002.35
2022-11-19 17:03:00,,0833.0,5.00,0.00,22.9,21.8,00.0,31.7,24.8,07.1,0000.0,0004.71,0002.45,0002.26
2022-11-19 17:04:00,,0833.1,5.01,0.00,22.9,21.8,00.0,31.7,24.8,07.1,0000.0,0004.79,0002.45,0002.23
2022-11-19 17:05:00,,0833.1,5.01,0.00,22.9,21.8,00.0,31.7,24.8,07.1,0000.0,0004.82,0002.44,0002.21
2022-11-19 17:06:00,,0833.0,5.00,0.00,22.9,21.9,00.0,31.7,24.8,07.7,0000.0,0004.82,0002.44,0002.21
2022-11-19 17:07:00,,0833.0,4.98,0.00,23.0,21.9,00.0,31.7,24.9,07.8,0000.0,0004.85,0002.46,0002.23
2022-11-19 17:08:00,,0833.1,5.00,0.00,23.0,21.9,00.0,31.7,24.9,07.9,0000.0,0004.76,0002.47,0002.26
2022-11-19 17:09:00,,0833.1,5.00,0.00,23.0,21.9,00.0,31.8,24.9,08.2,0000.0,0004.75,0002.54,0002.32
2022-11-19 17:10:00,,0833.0,5.00,0.00,23.0,21.9,00.0,31.8,24.9,08.7,0000.0,0004.73,0002.70,0002.43
2022-11-19 17:11:00,,0833.0,4.99,0.00,23.0,21.9,00.0,31.8,24.9,08.9,0000.0,0004.33,0002.87,0002.57
2022-11-19 17:12:00,,0833.0,5.00,0.00,23.0,21.9,00.0,31.8,24.9,08.8,0000.0,0004.51,0003.09,0002.72
2022-11-19 17:13:00,,0833.0,5.01,0.00,23.1,22.0,00.0,31.8,24.9,08.9,0000.0,0004.78,0003.22,0002.89
2022-11-19 17:14:00,,0833.0,5.00,0.00,23.1,22.0,00.0,31.8,24.9,08.9,0000.0,0005.02,0003.32,0003.06
2022-11-19 17:15:00,,0833.0,5.00,0.00,23.1,22.0,00.0,31.8,24.9,08.9,0000.0,0005.28,0003.42,0003.18
2022-11-19 17:16:00,,0832.9,4.99,0.00,23.1,22.0,00.0,31.8,24.9,09.0,0000.0,0005.72,0003.52,0003.26
2022-11-19 17:17:00,,0832.9,5.00,0.00,23.1,22.0,00.0,31.9,25.0,09.2,0000.0,0007.16,0003.60,0003.34
2022-11-19 17:18:00,,0832.9,5.01,0.00,23.1,22.0,00.0,31.9,24.9,09.2,0000.0,0007.33,0003.68,0003.41
2022-11-19 17:19:00,,0832.8,4.98,0.00,23.1,22.0,00.0,31.9,25.0,09.2,0000.0,0007.47,0003.74,0003.47
2022-11-19 17:20:00,,0832.8,5.00,0.00,23.1,22.0,00.0,31.9,25.0,09.1,0000.0,0007.80,0003.79,0003.52
2022-11-19 17:21:00,,0832.9,5.02,0.00,23.2,22.1,00.0,31.9,25.0,09.0,0000.0,0008.17,0003.80,0003.55
2022-11-19 17:22:00,,0832.8,4.99,0.00,23.2,22.1,00.0,31.9,25.0,08.9,0000.0,0008.29,0003.80,0003.55
2022-11-19 17:23:00,,0832.9,4.99,0.00,23.2,22.1,00.0,31.9,25.0,08.2,0000.0,0007.99,0003.75,0003.53
2022-11-19 17:24:00,,0832.8,5.00,0.00,23.2,22.1,00.0,32.0,25.0,08.3,0000.0,0007.88,0003.69,0003.50
2022-11-19 17:25:00,,0832.8,5.00,0.00,23.2,22.1,00.0,32.0,25.0,08.1,0000.0,0007.80,0003.64,0003.47
2022-11-19 17:26:00,,0832.8,5.00,0.00,23.2,22.1,00.0,32.0,25.0,07.4,0000.0,0007.67,0003.58,0003.43
2022-11-19 17:27:00,,0832.8,5.00,0.00,23.2,22.1,00.0,32.0,25.0,07.2,0000.0,0007.42,0003.49,0003.38
2022-11-19 17:28:00,,0832.8,5.00,0.00,23.2,22.1,00.0,32.0,25.0,07.2,0000.0,0006.22,0003.45,0003.33
2022-11-19 17:29:00,,0832.8,5.00,0.00,23.2,22.1,00.0,32.0,25.0,07.0,0000.0,0007.13,0003.42,0003.29
2022-11-19 17:30:00,,0832.8,5.00,0.00,23.3,22.2,00.0,32.0,25.1,07.1,0000.0,0007.08,0003.39,0003.23
2022-11-19 17:31:00,,0832.8,5.00,0.00,23.3,22.2,00.0,32.0,25.1,07.3,0000.0,0006.42,0003.34,0003.19
2022-11-19 17:32:00,,0832.8,4.98,0.00,23.3,22.2,00.0,32.1,25.1,07.5,0000.0,0005.73,0003.29,0003.14
2022-11-19 17:33:00,,0832.8,5.00,0.00,23.3,22.2,00.0,32.1,25.1,07.9,0000.0,0005.16,0003.27,0003.12
2022-11-19 17:34:00,,0832.9,5.01,0.00,23.3,22.2,00.0,32.1,25.1,08.0,0000.0,0005.59,0003.26,0003.09
2022-11-19 17:35:00,,0832.8,5.01,0.00,23.3,22.2,00.0,32.1,25.1,07.4,0000.0,0005.65,0003.26,0003.06
2022-11-19 17:36:00,,0832.9,4.99,0.00,23.3,22.3,00.0,32.1,25.1,07.6,0000.0,0005.75,0003.28,0003.01
2022-11-19 17:37:00,,0832.8,5.00,0.00,23.3,22.3,00.0,32.1,25.2,07.4,0000.0,0005.79,0003.28,0003.01
2022-11-19 17:38:00,,0832.8,4.99,0.00,23.4,22.3,00.0,32.1,25.2,08.0,0000.0,0005.91,0003.31,0003.02
2022-11-19 17:39:00,,0832.8,5.01,0.00,23.4,22.3,00.0,32.1,25.2,08.2,0000.0,0006.06,0003.33,0003.05
2022-11-19 17:40:00,,0832.8,5.00,0.00,23.4,22.3,00.0,32.1,25.2,07.9,0000.0,0004.99,0003.34,0003.09
2022-11-19 17:41:00,,0832.7,5.01,0.00,23.4,22.3,00.0,32.2,25.2,07.8,0000.0,0004.98,0003.36,0003.12
2022-11-19 17:42:00,,0832.7,5.00,0.00,23.4,22.4,00.0,32.2,25.2,07.9,0000.0,0005.00,0003.36,0003.14
2022-11-19 17:43:00,,0832.8,5.00,0.00,23.4,22.4,00.0,32.2,25.3,07.7,0000.0,0005.24,0003.41,0003.15
2022-11-19 17:44:00,,0832.8,5.00,0.00,23.5,22.4,00.0,32.2,25.3,07.6,0000.0,0005.33,0003.40,0003.14
2022-11-19 17:45:00,,0832.8,5.01,0.00,23.5,22.4,00.0,32.2,25.3,07.8,0000.0,0005.03,0003.40,0003.13
2022-11-19 17:46:00,,0832.9,5.01,0.00,23.5,22.4,00.0,32.2,25.4,07.9,0000.0,0005.00,0003.41,0003.15
2022-11-19 17:47:00,,0832.9,5.00,0.00,23.5,22.5,00.0,32.3,25.4,08.5,0000.0,0004.87,0003.38,0003.16
2022-11-19 17:48:00,,0832.9,4.99,0.00,23.5,22.5,00.0,32.3,25.4,08.3,0000.0,0004.93,0003.41,0003.18
2022-11-19 17:49:00,,0832.9,5.00,0.00,23.5,22.5,00.0,32.3,25.4,08.1,0000.0,0005.04,0003.42,0003.20
2022-11-19 17:50:00,,0832.8,5.00,0.00,23.6,22.5,00.0,32.3,25.4,08.3,0000.0,0004.97,0003.41,0003.20
2022-11-19 17:51:00,,0832.8,5.00,0.00,23.6,22.5,00.0,32.3,25.5,08.4,0000.0,0004.91,0003.41,0003.21
2022-11-19 17:52:00,,0832.7,5.00,0.00,23.6,22.5,00.0,32.3,25.5,08.2,0000.0,0005.17,0003.41,0003.22
2022-11-19 17:53:00,,0832.7,5.00,0.00,23.6,22.6,00.0,32.4,25.5,07.9,0000.0,0005.37,0003.43,0003.22
2022-11-19 17:54:00,,0832.8,4.99,0.00,23.6,22.6,00.0,32.4,25.5,07.8,0000.0,0005.48,0003.45,0003.22
2022-11-19 17:55:00,,0832.8,5.00,0.00,23.6,22.6,00.0,32.4,25.5,08.1,0000.0,0005.44,0003.46,0003.23
2022-11-19 17:56:00,,0832.7,5.00,0.00,23.6,22.6,00.0,32.4,25.5,08.2,0000.0,0005.41,0003.47,0003.25
2022-11-19 17:57:00,,0832.7,5.01,0.00,23.7,22.6,00.0,32.4,25.5,08.2,0000.0,0006.91,0003.50,0003.26
2022-11-19 17:58:00,,0832.7,5.00,0.00,23.7,22.6,00.0,32.4,25.5,08.1,0000.0,0007.17,0003.55,0003.28
2022-11-19 17:59:00,,0832.7,5.01,0.00,23.7,22.7,00.0,32.5,25.5,08.2,0000.0,0007.26,0003.56,0003.28
